TimeAST,TemperatureF,Dew PointF,Humidity,Sea Level PressureIn,VisibilityMPH,Wind Direction,Wind SpeedMPH,Gust SpeedMPH,PrecipitationIn,Events,Conditions,WindDirDegrees,DateUTC
12:00 AM,95.0,71.6,47,29.53,-9999.0,NW,8.1,-,N/A,,Clear,310,2013-08-26 21:00:00
12:30 AM,95.0,71.6,47,29.50,-9999.0,WNW,5.8,-,N/A,,Clear,290,2013-08-26 21:30:00
1:00 AM,95.0,71.6,47,29.50,-9999.0,WNW,6.9,-,N/A,,Clear,290,2013-08-26 22:00:00
1:30 AM,93.2,71.6,49,29.50,-9999.0,WNW,6.9,-,N/A,,Clear,300,2013-08-26 22:30:00
2:00 AM,93.2,69.8,46,29.50,-9999.0,WNW,6.9,-,N/A,,Clear,300,2013-08-26 23:00:00
2:30 AM,93.2,71.6,49,29.50,-9999.0,WNW,6.9,-,N/A,,Clear,300,2013-08-26 23:30:00
3:00 AM,92,74,47,29.53,7,WNW,5.8,,,,,290,2013-08-27 00:00:00
3:00 AM,93.2,73.4,52,29.50,-9999.0,WNW,5.8,-,N/A,,Clear,290,2013-08-27 00:00:00
3:30 AM,93.2,71.6,49,29.50,-9999.0,WNW,12.7,-,N/A,,Clear,300,2013-08-27 00:30:00
4:00 AM,93.2,71.6,49,29.50,-9999.0,WNW,12.7,-,N/A,,Clear,300,2013-08-27 01:00:00
4:30 AM,93.2,71.6,49,29.53,-9999.0,NW,6.9,-,N/A,,Clear,310,2013-08-27 01:30:00
5:00 AM,93.2,71.6,49,29.53,-9999.0,NW,8.1,-,N/A,,Clear,310,2013-08-27 02:00:00
6:00 AM,91.4,73.4,55,29.56,-9999.0,NW,8.1,-,N/A,,Clear,310,2013-08-27 03:00:00
6:30 AM,93.2,75.2,56,29.56,-9999.0,NW,8.1,-,N/A,,Clear,310,2013-08-27 03:30:00
7:00 AM,93.2,75.2,56,29.56,-9999.0,WNW,10.4,-,N/A,,Clear,300,2013-08-27 04:00:00
7:30 AM,95.0,73.4,49,29.56,-9999.0,NW,13.8,-,N/A,,Clear,320,2013-08-27 04:30:00
8:00 AM,96.8,73.4,47,29.56,-9999.0,NW,10.4,-,N/A,,Clear,320,2013-08-27 05:00:00
8:30 AM,98.6,69.8,39,29.56,-9999.0,NNW,15.0,-,N/A,,Clear,330,2013-08-27 05:30:00
9:00 AM,100,68,26,29.59,9,NW,12.7,,,,Scattered Clouds,310,2013-08-27 06:00:00
9:00 AM,100.4,68.0,35,29.59,-9999.0,NW,12.7,-,N/A,,Clear,310,2013-08-27 06:00:00
9:30 AM,102.2,68.0,33,29.56,-9999.0,NW,12.7,-,N/A,,Clear,320,2013-08-27 06:30:00
10:00 AM,104.0,62.6,26,29.56,-9999.0,NW,11.5,-,N/A,,Clear,320,2013-08-27 07:00:00
10:30 AM,105.8,59.0,22,29.56,-9999.0,NNW,16.1,-,N/A,,Clear,340,2013-08-27 07:30:00
11:00 AM,107.6,57.2,19,29.56,-9999.0,NNW,17.3,-,N/A,,Clear,340,2013-08-27 08:00:00
11:30 AM,109.4,59.0,19,29.53,-9999.0,NNW,11.5,-,N/A,,Clear,340,2013-08-27 08:30:00
12:00 PM,107.6,62.6,23,29.53,-9999.0,North,18.4,-,N/A,,Clear,360,2013-08-27 09:00:00
12:30 PM,109.4,60.8,21,29.53,-9999.0,North,18.4,-,N/A,,Clear,350,2013-08-27 09:30:00
1:00 PM,105.8,68.0,30,29.53,-9999.0,North,18.4,-,N/A,,Clear,10,2013-08-27 10:00:00
1:30 PM,104.0,73.4,38,29.50,-9999.0,North,19.6,-,N/A,,Clear,10,2013-08-27 10:30:00
2:00 PM,105.8,69.8,31,29.50,-9999.0,North,19.6,-,N/A,,Clear,360,2013-08-27 11:00:00
2:30 PM,105.8,66.2,28,29.50,3.7,North,23.0,-,N/A,,Unknown,360,2013-08-27 11:30:00
3:00 PM,105,68,22,29.52,4,North,23.0,,,,Widespread Dust,0,2013-08-27 12:00:00
3:00 PM,105.8,68.0,30,29.50,3.7,North,23.0,-,N/A,,Unknown,360,2013-08-27 12:00:00
4:00 PM,104.0,71.6,35,29.50,4.3,North,19.6,-,N/A,,Unknown,360,2013-08-27 13:00:00
4:30 PM,105.8,60.8,23,29.50,5.6,North,19.6,-,N/A,,Unknown,350,2013-08-27 13:30:00
5:00 PM,104.0,62.6,26,29.50,-9999.0,North,17.3,-,N/A,,Clear,350,2013-08-27 14:00:00
5:30 PM,102.2,60.8,26,29.50,-9999.0,North,17.3,-,N/A,,Clear,350,2013-08-27 14:30:00
6:00 PM,100.4,60.8,27,29.50,-9999.0,North,17.3,-,N/A,,Clear,350,2013-08-27 15:00:00
6:30 PM,98.6,62.6,30,29.53,-9999.0,NNW,15.0,-,N/A,,Clear,340,2013-08-27 15:30:00
7:00 PM,98.6,62.6,30,29.53,-9999.0,NNW,15.0,-,N/A,,Clear,340,2013-08-27 16:00:00
7:30 PM,96.8,62.6,32,29.53,-9999.0,NNW,16.1,-,N/A,,Clear,340,2013-08-27 16:30:00
8:00 PM,96.8,60.8,30,29.53,-9999.0,NNW,12.7,-,N/A,,Clear,340,2013-08-27 17:00:00
8:30 PM,96.8,62.6,32,29.53,-9999.0,NNW,12.7,-,N/A,,Clear,330,2013-08-27 17:30:00
9:00 PM,96,62,23,29.56,9,NNW,22.4,,,,,330,2013-08-27 18:00:00
9:00 PM,96.8,62.6,32,29.53,-9999.0,NNW,11.5,-,N/A,,Clear,330,2013-08-27 18:00:00
9:30 PM,96.8,64.4,34,29.53,-9999.0,NW,8.1,-,N/A,,Clear,320,2013-08-27 18:30:00
10:00 PM,95.0,64.4,36,29.53,-9999.0,NW,10.4,-,N/A,,Clear,320,2013-08-27 19:00:00
10:30 PM,95.0,64.4,36,29.53,-9999.0,NW,9.2,-,N/A,,Clear,310,2013-08-27 19:30:00
11:00 PM,95.0,64.4,36,29.53,-9999.0,WNW,8.1,-,N/A,,Clear,300,2013-08-27 20:00:00
11:30 PM,95.0,64.4,36,29.53,-9999.0,WNW,6.9,-,N/A,,Clear,300,2013-08-27 20:30:00